STARLINK-31031, 58711

Orbit data source: Space-Track

STARLINK-31031, 58711 is a payload satellite owned by SpaceX/Seattle (US) in LEO that was launched on Wed, 03 Jan 2024 UTC via an FALCON 9 launch vehicle from the Air Force Western Test Range (AFWTR). Payload-class satellites include a variety of spacecraft equipped with specific instruments for various scientific and technological missions. These include communications satellites like Starlink; space stations such as the ISS; scientific satellites like the Hubble; Earth observation satellites from companies like Planet Labs, Umbra, and HawkEye 360; GPS; miniature CubeSats for education and research; and military/defense satellites.

Loading next visibility...
Identifier
58711, 2024-002G
Orbit
LEO
Country
Flag of USUS
Related business
Manufacturer
SpaceX/Seattle
Mission
Operational Commercial Communications
Bus & Motor
STARLINK V2M, Unknown motor
Mass
730 kg wet, ~700 kg dry
Launch date (UTC)
2024-01-03 (2 years ago)
Launch vehicle
FALCON 9
Launch site
Air Force Western Test Range (AFWTR)
Object type
Payload
Rocket body
Debris
Shape & HBR
Box + 2 Pan, 17.7 m
Radar Cross Section
33.884 m², Large (>1 m²)

Expand to show TLE details & history
Last TLE update: 3 days ago

TLE from 3 days ago
0 STARLINK-31031
1 58711U 24002G   26170.87615054  .00000864  00000-0  36713-4 0  9994
2 58711  53.1614 114.3713 0001374 100.2645 259.8513 15.34399667137677
Epoch: 2026-06-19T21:01Z
TLE epoch observation values (Epoch: 2026-06-19T21:01:39.406Z)
Latitude
Longitude
-109.14173°
Altitude
463.771 km
Speed
7.636 km/s
True Right ascension
07h 37m 29s
True Declination
0° 00' 00"
Sunlit
Object was in daylight at epoch
Visualization orbit readout
Latitude
Unknown
Longitude
Unknown
Altitude
Unknown
Speed
Unknown
Apparent Right ascension
Unknown
Apparent Declination
Unknown
Sunlit
N/A
Visualization observer readout
Local Sidereal Time
21:38:33
Azimuth
Unknown
Elevation
Unknown
Doppler factor
Unknown
Orbital elements
Apogee altitude
463.901 km
Perigee altitude
462.021 km
Semi-major axis
6,841.098 km
Eccentricity
0.00014
Inclination
53.1614°
RAAN
114.3713°
Arg. of periapsis
100.2645°
True anomaly
259.8358°
Mean anomaly
259.8513°
Eccentric anomaly
259.84355°
Mean motion
3.83579 °/min
Orbital period
93.85 mins
BSTAR
0.000036713
Loading maneuver chart data...
Computing Atmospheric mass density...
Loading historical data...
Loading historical data...
Loading historical data...
Loading historical data...
Loading historical data...
Loading historical data...
Loading historical data...

Documentation

Showing up to 5 results
|